Location: Lombard
(41.8800°N, 88.0080°W)
Time: 18:19:11
(UTC-06:00)

Vanguard 3 - Pass Details

Date: 17 December 2023
Orbit: 508 x 3239 km, 33.4° (Epoch: 23 February)

Event Time Altitude Azimuth Distance (km) Brightness Sun altitude
Rises 21:15:38 0° 270° (W) 7,091 12.5 -53.3°
Reaches altitude 10° 21:20:52 10° 267° (W) 5,875 11.9 -54.3°
Enters shadow 21:32:09 41° 244° (WSW) 3,275 10.1 -56.2°
